Lapse_Rate
4.1 4.1 2.6 2.8 2.7 2.7 2.4 2.2 2.3 2.4 2.4 2.9 3.1 3.3 3.5 3.7 3.8 3.8 3.8 4.1 4.2 4.6 4.9 4.9 4.8 4.7 4.7 4.6 4.6 4.5 4.4 4.5 4.5 5.0 4.8 4.7 4.5 4.2 4.0 3.7 4.4 5.3 4.4
2.7 3.4 2.3 2.7 2.6 2.4 2.1 2.4 2.5 2.5 2.7 2.9 3.1 3.3 3.5 3.5 3.3 3.5 3.7 3.9 4.1 4.6 4.8 4.7 4.5 4.4 4.3 4.2 4.1 4.2 4.1 4.2 4.2 4.4 4.7 4.8 4.5 4.1 3.8 3.6 3.8 4.4 4.1
2.8 2.8 3.2 2.4 2.4 2.3 2.4 2.3 2.3 2.4 2.4 2.4 2.9 3.1 3.1 3.1 3.3 3.2 3.5 3.8 4.1 4.5 4.7 4.5 4.5 4.3 4.0 4.0 4.1 4.3 4.2 4.4 4.4 4.3 4.4 6.9 6.3 4.4 4.0 3.6 3.6 3.7 3.9
2.9 2.5 3.5 2.0 2.4 2.3 2.4 2.4 2.4 2.5 2.5 2.4 2.7 3.0 3.2 3.3 3.4 3.3 3.3 3.8 4.2 4.6 4.9 4.7 4.5 4.0 3.6 3.7 4.2 4.5 4.5 4.4 4.5 4.5 6.8 6.7 6.7 4.7 4.5 4.1 3.8 3.8 3.9
3.6 2.8 2.7 1.8 2.1 2.3 2.4 2.6 2.6 2.6 2.5 2.7 2.8 3.1 3.3 3.5 3.4 3.4 3.4 3.8 4.2 4.8 5.0 4.8 4.4 3.9 3.7 4.0 4.3 4.6 4.7 4.7 4.7 5.5 6.5 6.7 7.0 5.2 4.6 4.1 4.3 3.8 3.8
3.8 3.2 1.2 1.4 1.9 2.1 2.2 2.5 2.5 2.5 2.4 2.6 2.8 3.1 3.3 3.3 3.2 3.3 3.5 3.6 4.0 4.6 5.1 4.7 4.1 3.7 3.8 4.1 4.2 4.4 4.7 4.9 4.8 7.0 6.6 6.1 6.8 5.0 4.5 3.9 3.5 3.5 3.5
3.1 2.9 1.9 1.4 1.7 2.2 2.3 2.4 2.4 2.5 2.5 2.5 2.8 2.9 3.2 3.1 3.1 3.2 3.7 3.6 3.8 4.1 4.3 4.1 3.9 3.9 3.8 3.9 4.0 4.2 4.1 4.3 6.4 6.6 6.6 6.6 6.8 5.1 4.9 4.3 3.9 3.7 3.6
2.5 1.9 2.5 1.6 2.0 2.3 2.3 2.2 2.3 2.6 2.5 2.6 2.9 3.1 3.1 3.2 3.1 3.2 3.5 3.4 3.4 3.4 3.6 3.7 3.9 3.9 3.8 3.7 3.8 3.8 3.9 4.0 5.7 6.3 6.4 7.1 5.8 5.1 5.1 4.5 4.1 4.0 4.0
2.8 2.4 2.4 2.9 2.8 2.4 2.4 2.3 2.5 2.7 2.8 3.0 3.0 3.2 3.0 3.1 3.0 3.1 3.2 3.2 3.0 3.1 3.3 3.5 3.7 3.8 3.9 3.8 3.7 4.0 4.0 4.0 5.9 6.1 6.4 6.8 5.2 5.4 5.3 4.8 4.5 4.4 4.3
3.3 3.2 2.9 2.7 2.9 3.3 3.2 2.4 2.5 2.9 2.9 3.1 3.2 3.0 2.8 3.0 3.0 3.0 3.1 3.0 2.9 3.2 3.4 3.5 3.5 3.6 3.8 3.8 3.8 3.9 4.1 4.4 6.3 6.3 6.8 7.1 5.1 5.5 5.6 5.3 5.0 4.8 4.6
3.1 3.0 2.9 3.4 2.9 2.8 3.3 2.8 2.6 2.9 2.7 3.0 3.2 2.8 2.8 4.3 3.9 3.3 3.9 2.7 2.8 3.0 3.4 3.7 3.5 3.4 3.5 3.3 3.4 3.7 4.1 6.4 6.3 6.3 7.2 5.2 5.2 5.8 5.9 5.5 5.3 5.2 5.0
2.3 2.6 3.2 3.1 2.6 2.5 3.3 2.4 3.8 3.8 3.7 4.0 3.9 3.3 4.0 3.8 3.9 4.3 3.5 2.6 2.7 2.8 3.0 3.3 3.4 3.5 3.7 5.5 5.4 4.1 5.9 5.7 6.1 6.6 6.9 4.9 5.4 6.1 6.6 6.1 5.6 5.3 5.1
2.9 2.5 2.9 3.0 2.2 2.3 2.6 2.0 2.6 2.3 2.1 3.0 3.4 3.4 3.6 3.6 3.5 4.1 4.2 4.1 4.3 3.3 4.8 4.4 4.7 5.4 5.1 5.1 5.3 5.2 5.3 5.4 6.4 6.5 6.4 4.6 4.9 5.5 6.4 6.2 5.7 5.5 5.4
3.1 2.5 2.3 2.7 1.9 2.1 2.6 2.5 2.0 1.7 1.3 1.8 1.7 1.8 2.3 3.1 3.7 4.3 4.8 4.7 4.6 5.2 5.3 5.5 6.3 5.5 5.3 4.7 4.6 5.0 5.0 5.5 6.3 6.7 6.5 4.7 4.8 5.1 6.0 6.2 6.1 5.7 5.5
3.1 2.9 1.7 1.6 1.4 1.5 2.0 2.0 1.5 1.6 1.5 1.4 1.1 0.9 1.4 3.3 4.1 4.4 4.4 4.8 5.1 5.1 4.8 5.6 6.2 6.4 6.2 5.8 5.4 5.0 5.3 5.5 5.6 6.2 6.5 4.9 4.7 5.0 5.4 5.9 5.9 5.8 5.8
3.8 2.8 2.1 1.0 0.8 1.1 1.3 1.2 1.5 1.3 1.5 1.2 0.7 0.9 1.8 3.0 3.8 4.0 4.4 5.0 5.1 5.4 4.6 4.4 6.7 6.9 6.9 6.2 6.3 5.7 5.7 5.8 6.1 6.1 6.7 6.6 4.5 4.4 4.6 5.1 5.8 6.1 6.2
3.8 3.3 2.2 1.4 1.4 1.0 1.0 1.3 1.2 1.0 0.8 0.6 1.2 1.7 2.5 3.0 3.5 4.0 4.3 5.3 5.7 5.2 4.4 5.6 6.0 6.0 6.7 6.6 6.5 6.4 6.2 6.0 6.1 6.0 6.1 6.4 6.4 4.1 4.2 4.1 4.3 4.8 5.5
4.4 3.1 2.5 1.6 1.6 2.1 1.8 2.2 2.4 1.9 2.1 2.6 2.8 2.7 2.6 3.1 3.6 3.7 4.5 5.4 6.1 5.9 6.1 6.7 7.1 7.2 7.3 7.3 7.3 5.0 6.9 6.1 6.0 5.6 5.8 5.7 6.0 6.2 5.4 3.8 3.9 4.3 4.9
3.7 3.3 2.6 2.2 1.4 2.2 2.5 2.2 2.2 2.2 2.5 2.8 2.8 2.9 2.8 3.2 3.5 4.3 5.3 5.9 5.5 5.9 4.7 4.5 4.5 4.6 5.0 5.8 7.3 6.9 4.9 4.4 5.3 5.1 5.4 5.5 5.2 5.1 6.1 5.8 4.2 4.3 4.4
4.2 3.4 2.8 2.5 1.4 2.2 2.1 2.1 2.1 1.2 2.2 2.8 3.4 3.5 3.9 3.9 4.2 4.6 5.2 5.1 4.9 4.6 4.4 4.5 5.3 5.1 4.9 6.2 6.7 6.7 6.1 4.7 4.1 5.1 5.7 5.2 5.3 5.3 5.4 5.7 6.2 6.0 4.6
3.6 3.6 2.3 2.2 2.5 1.7 1.1 1.4 2.1 1.6 1.9 2.3 2.9 4.0 4.3 4.2 4.6 4.9 5.3 4.8 3.7 4.6 4.8 4.3 5.7 6.6 6.1 4.6 5.5 6.1 5.9 6.0 5.3 4.7 6.7 6.3 6.2 5.8 5.5 5.4 5.5 6.4 7.0
2.2 2.4 2.6 2.5 2.6 2.0 1.9 2.5 3.0 2.2 2.9 4.0 3.9 3.9 4.3 4.6 4.7 4.7 4.8 4.7 4.0 4.1 3.8 3.6 4.1 4.6 4.6 4.4 5.9 4.6 5.5 7.8 8.3 7.1 7.0 7.1 6.3 6.0 6.1 5.5 5.3 5.2 5.6
2.8 2.1 2.2 2.0 2.3 2.6 2.5 3.1 2.4 3.2 2.5 3.8 4.3 4.3 4.7 4.3 4.2 3.8 3.1 3.0 3.4 3.9 4.1 3.6 3.8 4.3 5.2 4.1 4.8 5.7 5.6 7.7 7.3 7.7 7.7 8.0 7.0 6.9 6.9 6.5 5.9 5.7 5.8
1.1 2.1 2.1 2.1 2.3 2.8 2.8 3.4 3.1 3.7 3.3 3.7 3.2 3.3 2.9 2.6 2.3 2.4 2.8 3.1 3.5 3.1 3.6 3.3 3.6 4.0 4.3 5.1 5.9 6.5 6.3 6.8 6.8 7.7 9.0 9.2 9.3 8.1 7.8 8.1 7.5 6.9 6.6
1.6 1.0 1.4 1.7 2.4 2.6 1.9 3.5 3.3 5.0 4.6 2.8 2.5 2.6 1.9 1.9 1.7 1.9 2.8 2.6 3.0 3.2 3.1 4.7 5.1 5.2 5.5 5.7 5.3 5.6 6.5 7.4 8.3 7.8 7.6 8.7 9.3 9.6 9.2 7.7 7.1 7.2 6.8
1.7 1.1 1.7 1.9 2.3 2.2 1.7 2.7 3.6 4.1 2.8 3.0 2.6 2.9 2.9 1.5 2.0 2.6 2.6 2.6 3.3 3.6 3.5 3.7 3.0 4.0 4.9 5.0 5.0 5.5 5.7 6.5 7.7 7.7 8.2 8.5 8.4 9.0 9.2 7.7 7.3 7.3 7.2
Wind_Speed
14 22 19 14 11 10 18 18 19 22 26 25 24 24 23 23 21 19 18 17 16 15 15 16 16 16 16 15 14 13 13 14 14 12 12 11 11 11 10 10 7 12 11
19 25 22 17 13 13 18 19 19 22 24 24 23 23 22 21 20 19 18 16 15 15 15 15 16 16 15 14 14 13 12 13 13 12 10 10 10 10 10 9 9 11 11
21 26 24 19 16 16 17 19 20 22 24 24 22 21 21 20 19 19 16 15 15 14 14 15 15 14 14 13 12 12 12 12 11 10 7 7 8 7 8 8 9 9 10
20 24 25 22 17 18 17 18 20 22 22 23 22 21 19 19 18 17 16 15 14 13 14 14 13 13 13 12 11 10 11 11 8 7 5 5 6 6 6 7 7 8 8
18 23 25 24 22 19 19 18 19 20 21 21 22 21 20 18 17 16 15 15 13 13 13 13 12 10 11 10 8 7 6 4 1 2 3 3 4 7 6 6 6 6 6
17 21 27 26 23 22 21 19 19 20 21 22 21 20 19 18 18 15 14 14 13 12 11 12 11 10 9 7 6 4 2 1 2 1 1 2 1 5 5 6 6 6 6
16 18 24 23 25 23 23 21 20 20 21 21 20 20 19 18 18 17 14 14 14 13 12 11 10 9 9 7 4 3 1 2 3 2 3 5 3 3 4 4 4 5 5
16 16 19 20 21 22 23 22 22 22 22 22 20 19 19 19 18 17 15 14 15 13 13 11 10 8 7 6 4 2 2 3 2 3 2 5 6 6 4 3 3 4 5
14 16 19 19 18 20 23 24 24 23 22 21 21 21 20 19 18 16 15 14 14 13 13 12 10 9 6 5 4 2 3 4 3 3 4 4 7 5 4 3 2 3 3
12 12 13 18 20 19 17 23 22 23 23 21 21 21 20 18 17 16 15 14 14 12 11 11 11 9 7 4 2 1 1 2 3 3 5 6 7 5 4 3 2 0 1
9 11 12 13 18 17 17 18 21 22 22 21 20 20 20 15 16 17 13 16 14 12 10 8 7 7 6 4 3 0 2 2 3 3 4 6 8 7 5 5 4 2 3
13 11 12 12 13 16 15 15 17 18 17 18 17 17 15 15 14 14 14 15 14 13 10 7 5 4 3 1 0 1 1 2 3 3 4 6 8 9 7 7 6 5 4
16 11 12 13 14 14 12 12 12 13 13 15 17 17 14 12 11 11 10 11 9 10 7 6 5 4 2 2 1 1 1 2 3 4 4 7 9 10 10 8 6 6 7
17 17 14 14 11 14 12 12 13 11 12 11 13 15 11 10 10 9 9 9 8 7 6 5 3 2 3 2 2 3 3 3 3 5 6 8 9 9 8 6 5 7 8
17 17 17 16 14 10 11 11 11 8 11 13 12 12 12 10 7 9 8 7 7 6 5 5 4 3 4 3 4 4 6 6 5 6 7 10 12 13 11 9 9 9 10
17 19 18 17 14 12 13 12 8 10 11 12 10 13 13 11 10 9 8 8 8 7 6 5 4 3 4 5 5 5 6 8 8 8 8 9 15 16 16 13 12 12 12
17 19 20 18 17 17 16 12 10 11 12 10 12 15 14 14 13 11 7 6 8 8 8 7 6 5 5 6 7 7 7 8 9 9 8 9 9 16 19 19 17 15 13
18 20 19 15 18 18 14 12 9 12 12 11 12 13 15 15 14 11 6 6 8 7 6 5 4 5 6 6 6 5 5 8 10 10 10 10 10 11 13 22 20 17 15
21 19 19 18 17 17 15 11 9 12 9 12 12 12 15 15 14 11 8 7 8 6 5 5 5 5 4 5 6 6 5 5 8 9 12 12 12 12 12 12 19 21 19
19 19 18 15 17 17 10 10 8 6 6 11 10 12 15 15 15 13 9 9 9 5 5 5 6 4 4 5 6 7 7 6 5 6 9 13 12 12 13 13 12 14 21
18 19 20 19 18 13 10 10 9 9 9 8 8 15 15 13 14 13 8 7 8 7 6 6 4 6 4 2 4 5 5 6 7 6 8 8 8 10 10 11 12 13 13
20 21 20 20 19 16 12 11 6 9 8 9 7 10 13 12 13 12 8 6 6 5 6 5 5 2 2 3 2 1 2 3 3 3 4 5 5 7 8 8 11 13 14
20 21 21 22 20 17 16 11 7 9 5 7 8 7 8 11 11 9 7 4 5 4 4 5 4 4 3 1 2 1 1 3 4 3 2 5 5 4 5 6 7 10 12
19 18 20 20 20 18 19 15 16 12 10 7 5 6 6 8 7 8 8 6 5 4 6 4 3 4 2 2 2 1 2 2 2 5 3 4 7 5 8 7 8 10 11
15 17 17 19 18 18 20 19 14 14 9 8 7 9 9 7 9 9 10 10 7 5 4 5 5 4 3 2 1 1 2 4 5 4 6 7 6 7 8 8 8 10 12
13 15 16 18 18 18 17 18 19 17 14 11 10 8 7 6 6 9 11 10 9 7 7 6 7 6 4 4 2 2 2 2 4 5 5 8 9 10 7 7 9 11 13
Wind_Direction
161 154 156 160 151 148 120 120 124 126 125 129 130 133 129 129 127 125 122 120 119 117 114 109 106 107 108 107 105 101 95 95 87 90 88 92 92 91 87 81 78 69 57
148 151 152 153 151 147 124 125 125 124 124 125 128 129 128 128 126 124 123 124 122 120 116 113 112 109 109 108 107 107 104 100 98 92 95 95 88 88 85 81 68 78 69
145 148 153 150 152 138 130 128 128 126 125 125 127 127 127 126 126 126 127 127 124 123 118 115 112 113 110 108 110 113 110 106 101 100 94 76 79 79 80 78 82 84 80
142 145 151 151 151 142 138 133 130 129 127 127 127 126 126 128 128 128 128 126 124 122 117 116 116 116 113 115 120 123 124 123 106 119 95 81 80 79 68 70 70 74 79
144 147 152 151 152 148 141 139 134 132 130 131 131 132 132 130 126 128 127 126 125 120 117 115 114 114 114 117 122 131 145 176 130 163 113 124 111 106 95 75 74 65 46
150 153 153 152 153 151 150 150 143 141 136 135 135 136 136 133 131 131 131 126 118 112 112 115 115 116 115 115 119 125 149 237 265 228 196 183 112 107 104 98 84 61 45
152 151 159 153 153 152 151 152 150 147 144 142 142 141 140 134 134 135 137 127 118 110 112 113 115 118 116 107 105 101 27 301 275 255 255 188 159 143 114 89 77 71 59
147 150 162 155 150 153 153 153 154 154 150 147 148 144 140 138 137 140 140 131 127 125 120 119 119 114 108 108 97 64 19 353 273 297 233 188 158 167 144 115 80 55 38
153 155 159 161 157 157 158 158 159 158 155 154 151 151 145 143 142 142 142 138 134 134 134 136 132 122 115 113 109 66 9 342 286 279 214 201 177 178 156 140 106 64 45
156 161 159 160 162 166 170 162 163 163 161 159 160 154 147 148 148 149 150 152 148 148 150 148 141 133 132 132 121 87 314 284 254 243 209 195 187 188 175 174 161 94 3
161 165 170 166 164 167 173 167 165 170 164 165 165 159 155 161 163 161 168 163 159 160 159 155 143 145 153 157 146 191 287 287 228 213 208 178 197 197 194 205 198 237 286
171 174 178 176 169 170 176 169 178 173 170 176 174 170 175 171 172 172 173 169 168 169 168 167 161 159 184 206 176 292 270 285 219 218 207 199 215 221 215 226 221 222 245
179 172 183 180 179 178 182 172 180 176 174 182 177 178 183 175 170 176 175 176 177 178 179 189 197 210 208 216 226 305 307 270 244 223 213 215 226 246 237 215 214 236 250
182 182 179 184 175 187 182 189 189 180 177 181 179 176 175 173 178 185 187 179 178 180 185 199 218 254 264 252 248 248 227 231 233 238 232 229 232 245 259 224 229 248 258
184 187 188 185 182 182 188 192 188 188 186 184 175 178 178 177 185 189 185 182 181 182 188 204 214 245 270 272 259 253 244 236 242 243 241 228 233 241 248 245 244 250 255
192 191 190 192 184 183 190 185 185 184 190 186 177 185 184 183 188 192 184 188 186 182 180 205 228 261 279 288 277 259 249 241 243 241 241 240 232 235 241 247 251 255 260
197 194 195 193 193 191 189 181 184 185 184 184 188 186 187 191 196 191 190 196 198 190 189 207 215 233 255 253 260 261 260 251 250 255 255 256 253 243 241 242 244 248 255
197 198 194 191 194 194 188 188 187 186 191 194 190 187 191 200 199 194 197 206 200 199 212 221 225 231 244 253 268 264 258 252 249 246 250 253 252 254 248 245 245 248 254
200 194 196 194 192 193 192 186 187 189 192 192 191 190 196 199 201 202 205 210 199 194 194 207 220 218 237 254 272 275 267 251 255 250 251 252 253 256 259 262 253 249 252
203 198 192 192 188 190 184 183 189 186 195 195 195 199 202 202 199 203 209 207 201 198 213 219 236 222 251 274 284 282 277 263 247 246 250 247 244 248 253 255 261 254 248
199 194 193 190 191 180 180 181 194 199 193 196 197 197 202 199 201 204 214 209 190 208 212 192 217 242 233 224 271 272 280 267 261 258 271 268 262 262 264 268 268 269 264
196 196 193 195 187 186 181 186 193 183 196 198 193 195 201 201 203 206 209 211 196 198 186 173 174 176 211 194 262 43 307 287 272 312 304 290 296 291 279 275 275 269 267
202 195 196 195 189 187 181 174 149 155 152 182 187 178 194 196 195 190 172 155 164 170 180 171 174 178 191 116 208 178 223 285 328 326 347 334 336 314 315 313 290 282 281
208 197 198 191 187 186 181 182 179 183 182 183 157 148 144 129 116 122 121 114 116 107 110 99 108 105 118 122 170 185 205 238 288 294 266 295 309 319 344 330 314 302 292
203 199 189 186 185 185 184 186 179 185 166 143 131 135 113 105 104 102 121 121 113 103 105 117 118 104 89 124 41 33 270 281 265 269 288 306 295 304 315 305 311 305 296
192 187 183 182 187 186 185 187 182 173 154 146 148 138 130 114 109 112 117 109 111 110 100 96 86 79 74 85 79 56 342 316 305 292 291 298 295 296 305 297 298 301 309